KSLV-II R/B

Satellite information

Favourite Embed

Satellite Type and Status

ROCKET BODYIN ORBIT

Key statistics

Satellite KSLV-II R/B at a glance.

Uptime

934

Days in orbit

Revolutions

≈ 15.3

Per day

Orbit

SSO

Sun Synchronous Orbit

Inclination

97.5

Latest

Satellite identification and parameters

Extended collection of information and parameters for KSLV-II R/B.

Object identification

Identified? True

Debris? False

Object name: KSLV-II R/B

International designator: 2023-072H

Object number (NORAD): 56750

Object ID (CCSDS): 56750

Country: SOUTH KOREA (SKOR)

Current information (Y/N): Y

RCS size: LARGE

Orbital parameters

Period: 94.024 minutes

Inclination: 97.5012 deg

SMA: 6849.415 km

Apoapsis: 488.085 km

Periapsis: 454.475 km

RAAN: 186.6866 deg

Eccentricy: 0.00245349

Argument of periapsis: 262.732 deg

Mean anomaly: 97.1132 deg

Mean motion: 15.31519601 rev/day

Mean motion (dot): 0.00013231 rev/day2

B* drag term: 0.00043306136 1/REarth

Two-line elements (TLE)

Creation date: Dec. 14, 2025, 3:07 a.m.

Reference frame: TEME

Reference center: EARTH

Epoch: Dec. 13, 2025, 12:18 p.m. UTC

TLE line 0: 0 KSLV-II R/B

TLE line 1: 1 56750U 23072H 25347.51261613 .00013231 00000-0 43306-3 0 9992

TLE line 2: 2 56750 97.5012 186.6866 0024535 262.7320 97.1132 15.31519601141945

Live tracking on map

Real-time ground track for satellite KSLV-II R/B.

In-orbit conjunctions

A list of the most updated potential collisions computed for object KSLV-II R/B.

Target Orbit TCA Probability of collision Miss distance Type
CZ-6A R/B SSO 2025-06-01 00:53:57 0.0001205068 220.0 (m) ROCKET BODY

Associated space launch

Third flight of the KSLV-II "Nuri" launch vehicle, carrying NEXTSat-2 as well as SNIPE A through D.

KSLV-II R/B was lifted into orbit during the mission ‘Nuri | NEXTSat-2 & SNIPE’, on board a Nuri space rocket.

The launch took place on May 25, 2023, 9:24 a.m. from LC-2.

For more information about the launch, click the button.

Launch to space Nuri | NEXTSat-2 & SNIPE
Nuri | NEXTSat-2 & SNIPE

Agency: N/A

Status: Launch Successful

Launch date: May 25, 2023, 9:24 a.m. UTC

Rocket: Nuri

Launch pad: LC-2

Location: Naro Space Center, South Korea

...

Latest news about this satellite

News about space launch
South Korea’s KSLV-2 rocket launches seven satellites, one unaccounted for

South Korea’s KSLV-2 rocket put seven satellites, including one equipped with synthetic aperture radar, into sun-synchronous orbit May 25, although an eighth cubesat is believed to have not deployed properly.

News about space launch
South Korea’s KSLV-2 rocket set to launch May 24

South Korea’s homegrown KSLV-2 rocket is slated to launch May 24, carrying a 180-kilogram technology demonstration satellite and seven cubesats.


Newsletter sign-up

Weekly statistics, charts and insights to help you stay on top of the space industry.